Wind_Speed
31 31 32 32 32 33 33 33 33 34 34 34 33 33 33 33 34 33 32 31 31 31 32 31 30 30 29 29 29 28 28 27 27 27 26 26 25 25 25 24 24 23 23
33 32 32 33 33 34 33 33 34 34 35 35 35 35 35 35 35 34 34 34 33 33 33 33 33 32 32 31 31 30 30 29 29 28 28 28 27 27 26 26 25 25 25
34 33 33 33 34 35 35 35 35 35 36 37 37 37 37 37 36 36 36 35 35 34 34 34 34 34 34 33 33 33 32 31 31 30 30 30 29 29 28 27 27 27 26
34 34 34 34 34 35 35 36 36 37 37 38 38 39 39 39 39 38 38 37 36 35 35 35 36 36 36 36 35 35 34 34 33 32 32 31 30 30 29 29 28 28 28
34 34 35 35 36 36 36 37 38 38 38 38 39 40 41 41 41 41 40 39 38 37 37 36 37 38 38 38 38 37 37 36 35 34 33 33 32 32 31 31 30 30 30
36 36 36 36 36 37 37 38 38 39 39 40 40 40 41 42 42 43 42 42 41 40 40 39 38 39 40 40 39 39 39 38 37 37 36 35 34 34 33 33 33 32 31
36 37 37 37 37 38 38 39 40 40 41 41 41 41 42 42 42 43 43 44 43 43 41 40 39 40 40 40 40 40 40 40 39 38 38 37 37 37 36 35 35 35 34
37 37 37 38 39 39 40 40 41 41 41 42 42 41 42 43 43 44 44 45 45 45 44 44 43 42 42 42 41 40 40 41 40 40 39 39 39 38 38 37 37 37 36
39 39 39 39 40 40 41 41 42 42 42 42 43 43 43 43 43 44 46 46 46 46 45 45 46 45 43 43 42 42 41 40 41 41 41 41 41 41 40 40 39 38 38
40 41 41 41 42 42 42 42 42 43 43 43 43 44 44 44 44 43 45 46 47 48 48 47 47 47 46 45 44 44 44 43 44 44 43 43 43 43 42 42 40 40 39
41 41 42 42 43 43 43 43 43 43 43 42 43 43 44 44 45 45 45 46 48 49 49 49 50 49 48 48 46 46 46 47 46 46 46 45 45 44 44 44 43 42 42
41 42 42 42 43 43 43 42 43 44 44 43 43 43 43 44 45 46 46 46 47 49 50 50 50 50 49 48 47 47 47 48 48 48 47 47 47 47 47 46 46 45 44
42 42 42 42 42 42 42 42 42 43 43 44 44 44 44 44 45 46 46 46 47 48 50 49 49 49 50 49 49 48 49 49 50 50 50 49 49 49 49 49 48 47 47
42 42 42 43 43 42 42 42 42 43 43 44 44 45 45 45 45 46 46 47 47 47 48 48 49 49 50 49 50 50 50 51 50 51 52 51 51 51 50 50 50 49 48
42 42 42 42 41 41 41 42 42 43 43 43 43 44 44 44 45 45 46 46 47 47 47 48 49 49 50 51 51 51 52 52 52 52 52 52 52 51 51 52 52 52 52
42 42 41 41 41 41 41 41 42 43 43 43 43 44 44 44 45 45 46 46 47 47 46 46 48 49 50 51 51 51 51 52 53 53 53 53 53 53 52 52 52 52 52
41 40 40 40 40 41 42 42 42 42 43 43 43 44 44 44 45 45 46 47 48 47 47 46 48 49 49 50 50 50 50 51 52 52 52 52 53 53 53 52 52 52 53
41 40 40 40 40 41 42 42 42 42 43 43 43 43 44 44 44 45 46 48 47 47 47 47 48 49 50 50 50 50 50 50 51 51 52 52 52 53 54 54 53 53 54
42 42 41 41 41 41 41 41 42 41 42 43 43 43 43 43 44 45 46 46 46 47 47 48 48 49 50 51 50 50 50 50 50 51 52 53 53 52 53 54 53 54 55
43 42 42 41 41 41 41 41 40 41 41 41 42 42 43 44 44 44 44 45 45 46 46 47 47 47 48 49 49 49 49 49 49 50 51 52 52 53 53 54 53 53 54
42 41 41 41 41 40 40 40 40 40 40 41 41 42 42 42 42 42 43 43 44 44 45 45 46 46 47 48 48 48 48 48 48 49 49 51 51 52 53 53 54 54 55
39 39 39 39 38 38 38 38 39 38 38 39 39 40 39 40 41 41 42 42 43 43 44 44 43 44 44 44 45 46 46 47 48 49 50 51 52 51 52 53 53 54 54
38 38 37 37 36 36 36 37 37 38 37 37 38 38 38 39 39 40 40 40 41 42 43 42 42 42 42 43 44 44 44 45 47 48 49 49 50 50 52 53 54 54 55
37 37 37 36 36 35 35 36 36 36 36 36 36 36 36 36 37 37 38 39 40 40 41 42 42 42 42 42 43 43 43 44 45 46 47 48 50 51 52 53 53 53 54
35 35 35 34 34 34 34 34 34 34 34 34 34 34 34 35 35 36 37 37 38 39 40 41 41 42 41 41 41 42 42 42 43 44 45 47 47 48 49 50 51 52 53
34 34 33 33 33 33 33 33 33 33 32 32 33 33 33 33 34 35 36 36 37 38 39 40 40 41 40 40 40 40 41 41 42 43 44 46 46 47 47 47 49 50 50
Wind_Direction
264 266 267 267 268 266 264 263 263 262 261 261 261 261 262 261 261 262 263 263 264 263 263 263 264 265 266 266 266 267 267 267 269 270 271 272 273 275 277 278 281 283 285
266 266 268 268 267 265 265 263 262 262 261 260 260 261 261 261 261 262 263 263 263 264 263 262 262 263 265 265 266 267 267 267 268 270 270 271 273 274 275 277 279 281 283
267 267 268 268 266 266 265 264 263 263 262 261 261 261 261 261 262 262 262 263 264 264 264 262 262 263 264 265 266 266 267 267 267 269 270 271 272 272 273 274 277 279 280
267 268 267 267 267 266 265 264 263 264 264 262 261 261 261 260 261 262 262 262 263 263 264 263 262 262 263 264 264 265 265 266 267 268 269 270 271 272 272 273 275 277 278
268 269 269 268 268 267 266 265 265 264 265 265 263 262 261 260 260 261 262 262 262 262 263 264 264 262 262 263 263 264 263 264 265 266 268 269 270 270 271 273 274 276 277
270 270 270 269 269 268 267 266 266 266 266 266 265 264 263 261 260 260 260 261 262 262 261 262 265 264 262 262 262 263 263 263 263 265 266 268 269 269 270 271 273 275 276
270 270 269 270 270 270 268 267 267 267 266 266 266 265 264 263 261 261 260 260 261 261 261 261 262 264 263 262 261 262 262 262 263 263 265 266 267 268 269 270 272 273 275
271 270 270 271 272 272 270 268 267 267 267 267 266 266 265 264 262 261 261 261 261 260 261 260 260 261 261 261 261 262 262 262 262 263 264 265 266 267 267 269 271 273 273
271 272 272 272 273 273 272 269 266 267 266 266 265 266 266 265 264 262 261 261 260 259 259 260 261 261 261 260 261 262 263 263 263 263 263 264 265 265 266 267 269 271 271
273 273 274 275 276 275 273 271 269 268 267 266 266 266 266 266 265 263 262 260 260 259 259 259 260 260 259 260 261 261 263 264 264 263 263 263 263 264 265 266 267 269 270
274 274 274 275 276 276 274 272 270 269 268 267 267 267 267 266 266 265 263 261 260 259 259 258 259 260 260 260 262 261 262 262 263 263 263 263 263 263 264 265 265 267 269
275 275 275 275 276 276 274 272 270 268 267 267 267 267 267 267 267 267 265 263 261 260 259 259 259 260 260 259 261 261 261 261 262 262 263 262 262 263 263 264 265 266 267
277 276 276 276 276 276 275 273 270 269 267 267 267 268 267 268 267 267 265 264 262 261 260 259 260 260 260 260 260 261 261 262 262 262 263 262 262 263 263 264 264 265 266
279 279 278 276 276 275 274 273 271 269 268 267 268 268 267 267 268 267 266 264 263 261 260 259 259 259 260 261 261 261 261 262 262 263 263 263 263 263 263 264 264 265 266
279 280 279 278 276 274 273 272 271 269 268 268 268 267 267 267 268 267 266 265 263 262 260 259 259 260 261 261 262 262 262 262 264 263 263 262 264 264 264 265 265 265 265
281 281 280 278 277 275 274 273 272 270 269 268 268 268 267 267 268 267 266 265 264 263 261 260 259 260 261 261 262 262 262 263 263 263 263 263 263 264 265 265 265 265 264
282 281 279 278 277 276 275 274 273 271 269 269 269 268 268 268 269 267 266 265 264 263 262 261 260 260 261 261 262 262 262 263 263 263 263 263 263 264 265 265 266 265 264
280 280 279 279 277 276 276 275 274 272 269 268 268 268 269 269 269 268 267 265 264 263 262 262 261 262 262 263 263 263 263 263 263 263 263 263 264 264 264 265 265 265 264
279 279 278 278 277 276 276 275 274 272 270 269 268 268 268 268 269 269 267 266 264 263 263 263 263 263 263 263 263 263 263 263 264 263 263 262 263 263 264 264 265 265 265
279 278 277 277 276 276 276 275 275 272 270 269 268 269 269 269 269 269 267 265 264 264 264 264 264 264 263 263 263 263 262 263 263 263 263 263 263 264 264 264 265 265 266
279 277 276 275 275 275 275 275 274 273 272 271 270 271 271 270 269 269 267 266 265 264 264 265 265 264 264 263 263 264 264 264 265 264 265 264 264 265 266 266 267 266 267
277 276 275 275 276 275 275 275 274 273 273 272 272 271 271 271 269 269 268 266 264 264 264 265 266 266 264 263 263 265 265 265 266 265 266 266 266 266 267 267 268 268 268
277 276 276 275 276 275 275 276 275 274 274 274 274 273 273 272 271 270 269 266 265 265 265 265 266 266 265 264 265 266 268 268 268 267 267 268 268 268 268 269 270 270 269
277 277 276 275 276 276 276 276 275 275 276 276 275 274 274 273 273 271 269 268 267 266 266 266 266 266 266 266 266 267 268 269 269 268 268 268 269 270 271 271 272 271 270
278 278 277 276 275 276 276 276 276 275 276 276 276 276 275 274 273 273 271 269 268 267 267 267 266 266 266 266 267 268 268 269 270 270 269 270 270 271 271 272 272 271 271
278 278 276 275 275 276 275 276 276 276 276 277 277 277 276 275 274 274 273 271 270 269 268 268 268 267 266 267 268 269 270 271 272 271 272 272 272 273 272 272 272 273 272
Height
5813 5814 5814 5814 5815 5815 5815 5816 5817 5817 5818 5819 5820 5820 5821 5822 5823 5823 5824 5824 5825 5826 5826 5826 5827 5827 5828 5828 5828 5828 5828 5829 5828 5828 5828 5828 5828 5827 5827 5826 5825 5825 5824
5806 5807 5807 5807 5807 5807 5808 5809 5809 5810 5811 5812 5812 5813 5814 5814 5815 5816 5817 5817 5818 5818 5819 5819 5820 5821 5821 5822 5822 5822 5822 5822 5822 5822 5822 5822 5822 5822 5821 5821 5820 5819 5819
5799 5799 5800 5800 5800 5800 5800 5801 5801 5802 5803 5803 5804 5805 5806 5806 5807 5808 5809 5810 5810 5811 5811 5812 5813 5814 5814 5815 5815 5815 5815 5816 5816 5816 5816 5816 5816 5816 5815 5815 5814 5814 5813
5791 5791 5792 5792 5792 5792 5792 5792 5793 5794 5794 5795 5795 5796 5797 5798 5799 5799 5800 5801 5802 5803 5803 5804 5805 5806 5806 5807 5808 5808 5808 5809 5809 5809 5809 5809 5809 5809 5809 5809 5808 5808 5807
5783 5784 5784 5783 5783 5783 5784 5784 5784 5785 5785 5786 5786 5787 5788 5789 5790 5790 5791 5792 5793 5794 5795 5795 5796 5797 5798 5799 5799 5800 5800 5801 5801 5801 5802 5802 5802 5802 5802 5802 5802 5801 5801
5775 5775 5775 5775 5775 5775 5775 5775 5775 5776 5776 5776 5777 5777 5778 5779 5780 5781 5782 5783 5784 5785 5786 5787 5788 5788 5789 5790 5790 5791 5792 5792 5793 5793 5794 5794 5794 5795 5795 5795 5794 5794 5794
5766 5766 5766 5766 5766 5766 5766 5766 5766 5766 5767 5767 5767 5768 5768 5769 5769 5770 5772 5773 5774 5775 5776 5777 5778 5779 5779 5780 5781 5782 5782 5783 5784 5785 5785 5786 5786 5786 5786 5787 5786 5786 5786
5758 5758 5757 5757 5757 5756 5756 5756 5756 5756 5756 5756 5756 5757 5758 5759 5759 5760 5761 5762 5764 5765 5766 5767 5768 5769 5769 5770 5771 5772 5773 5774 5774 5775 5776 5777 5777 5777 5778 5778 5778 5778 5778
5749 5749 5748 5748 5747 5747 5746 5746 5745 5745 5745 5745 5745 5746 5746 5747 5748 5749 5750 5751 5752 5754 5755 5756 5758 5758 5759 5760 5761 5762 5763 5763 5764 5765 5766 5767 5767 5768 5769 5769 5768 5769 5769
5739 5739 5738 5738 5737 5736 5735 5735 5735 5734 5734 5734 5734 5734 5735 5735 5736 5738 5739 5740 5741 5742 5744 5745 5746 5747 5748 5749 5751 5752 5752 5753 5754 5755 5755 5756 5757 5758 5759 5759 5759 5759 5759
5729 5728 5728 5727 5726 5725 5724 5724 5723 5723 5723 5723 5723 5723 5723 5723 5724 5725 5727 5728 5729 5730 5732 5733 5734 5735 5737 5738 5739 5741 5741 5742 5743 5744 5745 5745 5746 5747 5748 5748 5749 5749 5749
5719 5718 5717 5716 5715 5714 5713 5712 5712 5712 5712 5712 5712 5712 5712 5712 5713 5713 5715 5716 5717 5718 5719 5721 5722 5723 5725 5726 5727 5729 5729 5730 5731 5732 5733 5734 5735 5736 5736 5737 5737 5738 5738
5708 5707 5706 5705 5704 5703 5702 5701 5700 5700 5700 5700 5700 5700 5701 5701 5701 5701 5702 5704 5705 5706 5707 5708 5710 5711 5712 5713 5715 5716 5717 5718 5719 5720 5721 5722 5723 5724 5724 5725 5726 5726 5727
5698 5696 5695 5694 5692 5691 5690 5689 5689 5688 5688 5688 5688 5688 5689 5689 5689 5689 5690 5691 5692 5694 5695 5697 5698 5699 5700 5701 5702 5703 5704 5705 5706 5707 5708 5709 5710 5711 5712 5712 5713 5714 5714
5687 5685 5683 5682 5680 5679 5678 5678 5677 5677 5677 5676 5676 5676 5676 5677 5677 5677 5678 5678 5680 5682 5684 5685 5686 5686 5687 5689 5690 5690 5691 5692 5693 5694 5695 5696 5697 5698 5698 5699 5700 5701 5701
5675 5673 5671 5670 5669 5667 5667 5666 5666 5665 5665 5665 5664 5664 5664 5665 5665 5665 5665 5666 5667 5668 5671 5673 5673 5674 5674 5675 5676 5677 5678 5678 5679 5680 5681 5682 5683 5684 5685 5685 5686 5687 5687
5664 5662 5660 5658 5657 5656 5655 5654 5654 5653 5653 5652 5652 5652 5652 5652 5652 5652 5652 5653 5654 5654 5657 5659 5660 5660 5660 5661 5662 5663 5664 5664 5665 5666 5667 5668 5669 5669 5670 5671 5672 5673 5673
5652 5650 5649 5647 5646 5644 5643 5642 5642 5641 5640 5640 5640 5640 5640 5640 5640 5639 5639 5640 5640 5641 5643 5645 5646 5647 5647 5648 5648 5649 5649 5650 5651 5651 5652 5653 5654 5655 5655 5656 5657 5658 5658
5640 5638 5637 5635 5634 5632 5631 5630 5629 5628 5628 5628 5628 5628 5628 5627 5627 5626 5626 5626 5627 5628 5629 5631 5632 5633 5633 5634 5634 5635 5635 5635 5636 5636 5637 5638 5638 5639 5640 5641 5641 5642 5643
5627 5626 5624 5623 5622 5620 5619 5618 5617 5616 5616 5615 5615 5615 5615 5614 5614 5613 5613 5613 5614 5615 5616 5617 5618 5618 5619 5619 5620 5621 5621 5621 5621 5621 5622 5622 5623 5623 5624 5625 5626 5627 5627
5615 5613 5612 5611 5609 5608 5607 5606 5605 5604 5604 5603 5603 5602 5601 5601 5600 5600 5600 5600 5601 5602 5602 5603 5604 5604 5604 5605 5606 5607 5607 5607 5607 5607 5607 5607 5608 5609 5609 5609 5609 5610 5611
5603 5601 5600 5599 5598 5596 5595 5594 5594 5593 5592 5591 5590 5589 5589 5588 5588 5587 5587 5587 5588 5589 5589 5590 5590 5590 5591 5591 5592 5592 5593 5593 5594 5594 5593 5593 5592 5593 5593 5593 5593 5593 5594
5592 5590 5589 5588 5587 5585 5584 5583 5582 5581 5580 5579 5578 5577 5577 5576 5575 5574 5574 5574 5575 5575 5576 5577 5577 5577 5578 5578 5579 5579 5579 5579 5579 5579 5579 5579 5578 5578 5578 5577 5577 5577 5577
5581 5579 5578 5577 5576 5575 5574 5572 5571 5570 5569 5568 5567 5566 5565 5564 5563 5563 5562 5562 5562 5562 5563 5564 5564 5564 5564 5564 5565 5565 5565 5565 5565 5564 5564 5565 5564 5563 5562 5561 5560 5560 5560
5570 5569 5568 5566 5566 5564 5563 5562 5560 5559 5558 5557 5556 5554 5553 5553 5552 5551 5551 5550 5550 5550 5550 5550 5550 5550 5551 5551 5551 5551 5551 5551 5551 5551 5550 5550 5550 5549 5548 5546 5544 5543 5542
5560 5559 5558 5557 5556 5554 5553 5552 5550 5549 5548 5547 5545 5544 5542 5541 5540 5539 5539 5538 5538 5538 5538 5537 5537 5537 5537 5538 5538 5538 5538 5538 5537 5537 5536 5535 5534 5533 5534 5533 5529 5527 5526